| time (UTC) | temp C | wind direction | speed KPH | gust KPH | rain 1hr cm | rain 24hr cm | rain mn cm | humidity % | barometer mb |
| 20260510103017 | 18 | 0.0 | 0.0 | 0.00 | 3.53 | 0.00 | 97 | 1013.5 | |
| 20260510100017 | 18 | 0.0 | 0.0 | 0.00 | 3.53 | 0.00 | 97 | 1013.2 | |
| 20260510093017 | 18 | 0.0 | 0.0 | 0.00 | 3.53 | 0.00 | 97 | 1013.2 | |
| 20260510090017 | 19 | 0.0 | 0.0 | 0.00 | 3.53 | 0.00 | 97 | 1013.1 | |
| 20260510083017 | 19 | 0.0 | 1.6 | 0.00 | 3.53 | 0.00 | 97 | 1013.1 | |
| 20260510080017 | 19 | 0.0 | 3.2 | 0.00 | 3.53 | 0.00 | 97 | 1012.9 | |
| 20260510073057 | 19 | 0.0 | 3.2 | 0.00 | 3.53 | 0.00 | 97 | 1012.7 | |
| 20260510070017 | 19 | 0.0 | 3.2 | 0.00 | 3.53 | 0.00 | 97 | 1012.5 | |
| 20260510063017 | 19 | 0.0 | 3.2 | 0.00 | 3.53 | 0.00 | 97 | 1012.5 | |
| 20260510060016 | 20 | 113 | 3.2 | 8.0 | 0.00 | 3.53 | 0.00 | 97 | 1013.0 |
| 20260510053017 | 20 | 113 | 3.2 | 8.0 | 0.00 | 3.53 | 0.00 | 97 | 1012.8 |
| 20260510050017 | 20 | 113 | 3.2 | 14.5 | 0.00 | 3.53 | 3.53 | 97 | 1012.4 |
| 20260510043016 | 20 | 113 | 4.8 | 12.9 | 0.00 | 3.53 | 3.53 | 97 | 1011.9 |
| 20260510040016 | 20 | 113 | 3.2 | 14.5 | 0.00 | 3.53 | 3.53 | 97 | 1012.6 |
| 20260510033016 | 20 | 0.0 | 0.0 | 0.00 | 3.53 | 3.53 | 97 | 1012.8 | |
| 20260510030016 | 20 | 0.0 | 0.0 | 0.00 | 3.53 | 3.53 | 97 | 1013.8 | |
| 20260510023056 | 20 | 0.0 | 0.0 | 0.00 | 3.53 | 3.53 | 97 | 1013.6 | |
| 20260510020016 | 20 | 0.0 | 0.0 | 0.00 | 3.53 | 3.53 | 97 | 1013.3 | |
| 20260510013015 | 20 | 0.0 | 4.8 | 0.00 | 3.53 | 3.53 | 97 | 1013.1 | |
| 20260510010016 | 20 | 90 | 4.8 | 14.5 | 0.00 | 3.53 | 3.53 | 97 | 1012.6 |
| 20260510003015 | 20 | 90 | 8.0 | 16.1 | 0.00 | 3.53 | 3.53 | 97 | 1012.1 |
| 20260510000035 | 20 | 0 | 4.8 | 12.9 | 0.00 | 3.53 | 3.53 | 97 | 1012.1 |
| 20260509233018 | 20 | 0.0 | 8.0 | 0.00 | 3.53 | 3.53 | 97 | 1012.1 | |
| 20260509230017 | 20 | 0.0 | 0.0 | 0.03 | 3.63 | 3.53 | 97 | 1012.1 | |
| 20260509223017 | 20 | 0.0 | 3.2 | 0.08 | 4.06 | 3.53 | 97 | 1012.4 | |
| 20260509220017 | 19 | 68 | 1.6 | 8.0 | 0.18 | 4.09 | 3.51 | 97 | 1011.7 |
| 20260509213017 | 19 | 0.0 | 3.2 | 0.13 | 4.04 | 3.45 | 97 | 1012.1 | |
| 20260509210017 | 19 | 0.0 | 4.8 | 0.03 | 3.91 | 3.33 | 97 | 1012.2 | |
| 20260509203017 | 19 | 90 | 8.0 | 17.7 | 0.05 | 3.94 | 3.33 | 97 | 1011.6 |
| 20260509200037 | 19 | 68 | 3.2 | 9.7 | 0.10 | 4.22 | 3.30 | 97 | 1011.9 |
| 20260509193017 | 19 | 0.0 | 8.0 | 0.28 | 5.28 | 3.28 | 97 | 1013.1 | |
| 20260509190017 | 19 | 68 | 4.8 | 12.9 | 0.41 | 5.87 | 3.20 | 97 | 1013.2 |
| 20260509183017 | 19 | 68 | 4.8 | 14.5 | 0.28 | 5.66 | 3.00 | 97 | 1013.8 |
| 20260509180037 | 19 | 68 | 8.0 | 17.7 | 0.10 | 5.46 | 2.79 | 97 | 1012.7 |
| 20260509173016 | 19 | 90 | 9.7 | 24.1 | 0.13 | 5.38 | 2.72 | 97 | 1013.0 |
| 20260509170016 | 19 | 90 | 9.7 | 20.9 | 0.25 | 5.36 | 2.69 | 97 | 1013.1 |
| 20260509163016 | 19 | 68 | 9.7 | 20.9 | 0.64 | 5.26 | 2.59 | 97 | 1013.6 |
| 20260509160016 | 19 | 23 | 6.4 | 16.1 | 0.89 | 5.11 | 2.44 | 97 | 1013.8 |
| 20260509153016 | 19 | 23 | 3.2 | 9.7 | 0.97 | 4.62 | 1.96 | 96 | 1013.5 |
| 20260509150016 | 19 | 23 | 4.8 | 11.3 | 0.66 | 4.22 | 1.55 | 96 | 1013.5 |
| 20260509143016 | 18 | 23 | 1.6 | 8.0 | 0.15 | 3.66 | 0.99 | 96 | 1013.3 |
| 20260509140016 | 18 | 0 | 3.2 | 9.7 | 0.48 | 3.56 | 0.89 | 96 | 1013.2 |
| 20260509133036 | 18 | 0 | 6.4 | 24.1 | 0.84 | 3.51 | 0.84 | 95 | 1013.1 |
| 20260509130056 | 18 | 293 | 17.7 | 46.7 | 0.41 | 3.07 | 0.41 | 94 | 1014.1 |
| 20260509123016 | 22 | 0.0 | 6.4 | 0.00 | 2.67 | 0.00 | 96 | 1011.4 | |
| 20260509120016 | 21 | 0.0 | 4.8 | 0.00 | 2.67 | 0.00 | 96 | 1010.7 | |
| 20260509113016 | 21 | 0.0 | 0.0 | 0.00 | 2.67 | 0.00 | 97 | 1010.6 | |
| 20260509110015 | 21 | 0.0 | 0.0 | 0.00 | 2.67 | 0.00 | 97 | 1010.2 |